FENGYUN 1C DEB, 30136

Orbit data source: Space-Track

FENGYUN 1C DEB, 30136 is space debris in SSO originally from a launch on Mon, 10 May 1999 UTC launched from the Taiyaun Space Center, China (TSC). Fengyun 1C debris stems from the Chinese weather satellite Fengyun-1C, which was intentionally destroyed by a Chinese anti-satellite missile in 2007. This event dramatically increased the amount of space debris, with thousands of trackable fragments posing hazards to satellites and human spaceflight. The Fengyun 1C debris cloud has become a focal point in discussions about space sustainability and the need for international regulations to prevent the creation of new debris.

Loading next visibility...
Identifier
30136, 1999-025SR
Orbit
SSO
Country
Flag of CNCN / PRC
Related business
Manufacturer
Unknown
Mission
Spacecraft
Bus & Motor
Unknown
Mass
Unknown
Launch date (UTC)
1999-05-10 (27 years ago)
Launch vehicle
Unknown
Launch site
Taiyaun Space Center, China (TSC)
Object type
Payload
Rocket body
Debris
Shape & HBR
Unknown shape, 0.1 m
Radar Cross Section
Small (<0.1 m²)

Expand to show TLE details & history
Last TLE update: 3 days ago

TLE from 3 days ago
0 FENGYUN 1C DEB
1 30136U 99025SR  26260.17235919  .00000283  00000-0  22125-3 0  9999
2 30136  98.5226 137.8241 0129065  15.9124 135.2454 13.95600459999742
Epoch: 2026-09-17T04:08Z
TLE epoch observation values (Epoch: 2026-09-17T04:08:11.834Z)
Latitude
27.51929°
Longitude
-95.88405°
Altitude
979.813 km
Speed
7.33 km/s
True Right ascension
21h 29m 06s
True Declination
27° 22' 58"
Sunlit
Object was in full shadow at epoch
Visualization orbit readout
Latitude
Unknown
Longitude
Unknown
Altitude
Unknown
Speed
Unknown
Apparent Right ascension
Unknown
Apparent Declination
Unknown
Sunlit
N/A
Visualization observer readout
Local Sidereal Time
07:53:28
Azimuth
Unknown
Elevation
Unknown
Doppler factor
Unknown
Orbital elements
Apogee altitude
1,000.268 km
Perigee altitude
812.236 km
Semi-major axis
7,284.389 km
Eccentricity
0.01291
Inclination
98.5226°
RAAN
137.8241°
Arg. of periapsis
15.9124°
True anomaly
136.27485°
Mean anomaly
135.2454°
Eccentric anomaly
135.7613°
Mean motion
3.49103 °/min
Orbital period
103.12 mins
BSTAR
0.00022125
Loading maneuver chart data...
Computing Atmospheric mass density...

Documentation

Showing up to 5 results
|